WS Maaseik 1 Meer informatie WS Maaseik 1


WS Maaseik 2 Meer informatie WS Maaseik 2


Regen radar Meer informatie rain snow radar


Bezoek onze andere website:

Vorige versie
weerstation Maaseik


Bezoek ook eens deze sites:

Weerstation Geleen



Het weer levert geen direct gevaar op.    Er zijn geen waarschuwingen afgegeven.

15 daagse weersverwachting Nürnberg (DE)

  • Overzicht
  • Per uur
  • 15 dagen
  • Extra
  • Vergelijk
  • Kaarten
  • Dagkaart
  • Meer »
  • Info
  • Statistieken
  • Directe link
    Temp 6h Neerslag Wind  
 05:55     20:49    Daglengte: 14:54 Vandaag
20:00
19°
 
2
 05:56     20:48    Daglengte: 14:52 Morgen
02:00
16°
2.4 mm
2
08:00
15°
0.7 mm
2
14:00
18°
4.6 mm
4
20:00
19°
 
4
 05:58     20:46    Daglengte: 14:48 Zaterdag 07 Aug
02:00
15°
 
2
08:00
15°
 
1
14:00
23°
 
3
20:00
17°
17.9 mm
2
 05:59     20:44    Daglengte: 14:45 Zondag 08 Aug
02:00
16°
32.2 mm
4
08:00
15°
39.5 mm
3
Locatie info
Region: Bayern
Latitude: 49.4543°N
Longitude: 11.0735°E
300 masl
Postcode: 90403
Temp/Neerslag /Baro Onweer/Dauwpunt
    Temp Baro 1h Neerslag Dauwpunt Wind UV Bewolking  
 05:55     20:49    Daglengte: 14:54 Vandaag
15:00
21°
1009.2 hPa
49%
10.6°
2
Windvlaag: 0.4 m/s
15%
16:00
20°
1008.6 hPa
81%
10.6°
2
Windvlaag: 0.6 m/s
23%
17:00
21°
1008.1 hPa
79%
11.6°
2
Windvlaag: -0.1 m/s
9%
18:00
21°
1008.0 hPa
42%
11.9°
2
Windvlaag: -0.4 m/s
16%
19:00
20°
1007.9 hPa
73%
11.8°
2
Windvlaag: -0.4 m/s
11%
20:00
19°
1008.1 hPa
77%
12.2°
2
Windvlaag: 0.3 m/s
28%
21:00
18°
1008.3 hPa
35%
13.9°
1
Windvlaag: 0.7 m/s
47%
22:00
17°
1008.5 hPa
70%
13.9°
1
Windvlaag: 0.7 m/s
47%
23:00
16°
1008.5 hPa 0.5 mm
81%
13.8°
1
Windvlaag: 0.7 m/s
60%
 05:56     20:48    Daglengte: 14:52 Morgen
00:00
16°
1008.3 hPa 0.4 mm
82%
14.1°
2
Windvlaag: 0.5 m/s
56%
01:00
16°
1008.3 hPa 0.9 mm
82%
13.6°
2
Windvlaag: 2.1 m/s
54%
02:00
16°
1008.1 hPa 0.7 mm
82%
13.9°
2
Windvlaag: 0.5 m/s
33%
03:00
15°
1007.9 hPa 0.7 mm
75%
13.8°
2
Windvlaag: 1 m/s
56%
04:00
15°
1007.6 hPa
18%
14.1°
2
Windvlaag: 2.8 m/s
30%
05:00
15°
1007.5 hPa
15%
14.0°
2
Windvlaag: 3.8 m/s
55%
06:00
15°
1007.4 hPa
18%
13.8°
2
Windvlaag: 3.3 m/s
23%
07:00
15°
1007.7 hPa
20%
13.6°
2
Windvlaag: 4.3 m/s
22%
08:00
15°
1007.8 hPa
73%
13.6°
2
Windvlaag: 4.1 m/s
84%
09:00
16°
1007.7 hPa
82%
13.6°
2
Windvlaag: 4.6 m/s
84%
10:00
17°
1007.9 hPa 1.4 mm
82%
12.4°
2
Windvlaag: 4.5 m/s
86%
11:00
16°
1008.1 hPa 2.4 mm
82%
11.8°
3
Windvlaag: 4.6 m/s
86%
12:00
17°
1008.2 hPa
82%
13.5°
3
Windvlaag: 5 m/s
58%
13:00
18°
1007.9 hPa
75%
15.1°
4
Windvlaag: 6.3 m/s
45%
14:00
18°
1007.8 hPa 0.9 mm
82%
14.4°
4
Windvlaag: 5.3 m/s
21%
15:00
20°
1007.4 hPa
41%
13.7°
4
Windvlaag: 4.3 m/s
12%
16:00
20°
1007.5 hPa
28%
13.4°
6
Windvlaag: 3.2 m/s
26%
17:00
20°
1007.7 hPa
18%
11.8°
5
Windvlaag: 3.2 m/s
23%
18:00
20°
1007.8 hPa
14%
13.3°
5
Windvlaag: 2.6 m/s
7%
19:00
19°
1008.1 hPa
14%
13.2°
4
Windvlaag: 2.5 m/s
9%
20:00
19°
1008.3 hPa
14%
12.7°
4
Windvlaag: 2.6 m/s
5%
21:00
17°
1009.0 hPa
18%
12.1°
3
Windvlaag: 2.6 m/s
2%
22:00
17°
1009.4 hPa
14%
12.4°
2
Windvlaag: 3 m/s
5%
23:00
16°
1009.9 hPa
14%
12.5°
2
Windvlaag: 3.9 m/s
17%
 05:58     20:46    Daglengte: 14:48 Zaterdag 07 Aug
00:00
16°
1009.9 hPa
14%
12.3°
2
Windvlaag: 4 m/s
18%
01:00
15°
1009.9 hPa
14%
11.9°
2
Windvlaag: 4.4 m/s
11%
02:00
15°
1009.7 hPa
14%
12.0°
2
Windvlaag: 3.9 m/s
36%
03:00
15°
1009.5 hPa
14%
11.9°
2
Windvlaag: 2.5 m/s
16%
04:00
14°
1009.5 hPa
14%
11.8°
2
Windvlaag: 3.1 m/s
22%
05:00
14°
1009.3 hPa
14%
11.6°
2
Windvlaag: 2.3 m/s
29%
06:00
13°
1009.4 hPa
14%
11.8°
2
Windvlaag: 1.5 m/s
22%
07:00
13°
1009.6 hPa
14%
11.9°
2
Windvlaag: 1.6 m/s
9%
08:00
15°
1009.4 hPa
14%
12.3°
1
Windvlaag: 1.3 m/s
44%
09:00
16°
1009.1 hPa
14%
13.2°
1
Windvlaag: 1.6 m/s
25%
10:00
19°
1008.8 hPa
14%
14.7°
2
Windvlaag: 3.5 m/s
6%
11:00
21°
1007.7 hPa
21%
11.0°
3
Windvlaag: 5.6 m/s
54%
12:00
22°
1007.1 hPa
21%
10.5°
3
Windvlaag: 6.4 m/s
70%
13:00
23°
1006.6 hPa
21%
9.8°
3
Windvlaag: 6.6 m/s
91%
14:00
23°
1006.1 hPa
25%
9.6°
3
Windvlaag: 6.4 m/s
96%
15:00
22°
1005.7 hPa 1.0 mm
100%
9.9°
2
Windvlaag: 5 m/s
98%
16:00
22°
1005.2 hPa 0.9 mm
100%
13.0°
2
Windvlaag: 4.5 m/s
96%
17:00
20°
1005.8 hPa 1.7 mm
100%
17.2°
3
Windvlaag: 5.4 m/s
99%
18:00
19°
1005.3 hPa 3.9 mm
100%
17.3°
3
Windvlaag: 1.1 m/s
100%
19:00
18°
1005.5 hPa 3.7 mm
100%
16.1°
3
Windvlaag: -2.8 m/s
100%
20:00
17°
1005.4 hPa 6.8 mm
98%
15.3°
2
Windvlaag: -3.7 m/s
100%
21:00
16°
1006.0 hPa 5.2 mm
100%
14.4°
2
Windvlaag: -2.7 m/s
100%
22:00
16°
1006.2 hPa 5.2 mm
100%
13.8°
2
Windvlaag: -0.4 m/s
99%
23:00
16°
1006.8 hPa 5.5 mm
100%
13.3°
3
Windvlaag: 3.9 m/s
97%
 05:59     20:44    Daglengte: 14:45 Zondag 08 Aug
00:00
16°
1007.6 hPa 4.7 mm
100%
13.1°
3
Windvlaag: 5.2 m/s
98%
01:00
16°
1008.0 hPa 4.7 mm
100%
13.1°
4
Windvlaag: 5.9 m/s
95%
02:00
16°
1008.7 hPa 6.9 mm
97%
13.0°
4
Windvlaag: 2.6 m/s
97%
03:00
15°
1008.8 hPa
54%
12.6°
3
Windvlaag: 3.4 m/s
68%
04:00
15°
1009.2 hPa
90%
11.9°
3
Windvlaag: 4.6 m/s
87%
05:00
15°
1009.5 hPa 6.7 mm
38%
12.0°
3
Windvlaag: 5.4 m/s
84%
06:00
14°
1010.3 hPa
42%
11.8°
2
Windvlaag: 5.3 m/s
63%
07:00
14°
1010.8 hPa
40%
11.7°
2
Windvlaag: 3.5 m/s
46%
08:00
15°
1011.5 hPa
77%
11.8°
3
Windvlaag: 5.5 m/s
58%
09:00
17°
1012.5 hPa
18%
-35.5°
4
Windvlaag: 0 m/s
0%
Temp/Neerslag /Baro Onweer/Dauwpunt
    Temp Baro Neerslag Dauwpunt Wind Bewolking  
 05:55     20:49    Daglengte: 14:54 Vandaag
17:00
21°
1008.1 hPa   11.6°
2
9%
20:00
19°
1008.1 hPa   12.2°
2
28%
23:00
16°
1008.5 hPa 0.5 mm 13.8°
1
60%
 05:56     20:48    Daglengte: 14:52 Morgen
02:00
16°
1008.1 hPa 2.0 mm 13.9°
2
33%
05:00
15°
1007.5 hPa 0.7 mm 14.0°
2
55%
08:00
15°
1007.8 hPa   13.6°
2
84%
11:00
16°
1008.1 hPa 3.7 mm 11.8°
3
86%
14:00
18°
1007.8 hPa 0.9 mm 14.4°
4
21%
17:00
20°
1007.7 hPa   11.8°
5
23%
20:00
19°
1008.3 hPa   12.7°
4
5%
23:00
16°
1009.9 hPa   12.5°
2
17%
 05:58     20:46    Daglengte: 14:48 Zaterdag 07 Aug
02:00
15°
1009.7 hPa   12.0°
2
36%
05:00
14°
1009.3 hPa   11.6°
2
29%
08:00
15°
1009.4 hPa   12.3°
1
44%
11:00
21°
1007.7 hPa   11.0°
3
54%
14:00
23°
1006.1 hPa   9.6°
3
96%
17:00
20°
1005.8 hPa 3.6 mm 17.2°
3
99%
20:00
17°
1005.4 hPa 14.3 mm 15.3°
2
100%
23:00
16°
1006.8 hPa 15.9 mm 13.3°
3
97%
 05:59     20:44    Daglengte: 14:45 Zondag 08 Aug
02:00
16°
1008.7 hPa 16.3 mm 13.0°
4
97%
05:00
15°
1009.5 hPa 6.7 mm 12.0°
3
84%
08:00
15°
1011.5 hPa   11.8°
3
58%
11:00
18°
1013.2 hPa   14.3°
4
0%
14:00
20°
1013.6 hPa   14.0°
4
0%
17:00
18°
1015.9 hPa 38.7 mm 13.1°
5
1%
20:00
15°
1017.5 hPa 40.2 mm 13.2°
3
0%
23:00
13°
1020.0 hPa 41.2 mm 11.9°
2
0%
 06:00     20:43    Daglengte: 14:43 Maandag 09 Aug
02:00
12°
1020.4 hPa 41.2 mm 11.0°
2
0%
05:00
12°
1020.0 hPa 41.2 mm 10.8°
2
1%
08:00
13°
1020.4 hPa 41.2 mm 11.4°
2
1%
11:00
18°
1020.6 hPa 41.2 mm 11.0°
3
1%
14:00
21°
1020.4 hPa 41.2 mm 9.6°
4
1%
17:00
21°
1020.6 hPa 41.4 mm 10.9°
4
1%
20:00
17°
1021.1 hPa 42.0 mm 12.5°
3
1%
23:00
15°
1022.5 hPa 42.2 mm 12.0°
1
1%
 06:02     20:41    Daglengte: 14:39 Dinsdag 10 Aug
02:00
13°
1023.0 hPa 42.2 mm 11.7°
2
1%
05:00
12°
1022.8 hPa 42.2 mm 10.8°
2
0%
08:00
14°
1023.4 hPa 42.2 mm 11.5°
2
1%
11:00
19°
1022.8 hPa 42.5 mm 12.6°
3
1%
14:00
21°
1021.7 hPa 43.9 mm 12.9°
4
1%
17:00
21°
1021.2 hPa 44.4 mm 11.9°
4
0%
20:00
19°
1020.7 hPa 44.5 mm 11.6°
1
1%
23:00
16°
1021.7 hPa 44.5 mm 11.0°
0
1%
 06:03     20:39    Daglengte: 14:36 Woensdag 11 Aug
02:00
14°
1021.4 hPa 44.5 mm 10.9°
1
1%
05:00
13°
1021.0 hPa 44.5 mm 10.6°
1
1%
08:00
16°
1020.6 hPa 44.5 mm 11.6°
1
1%
11:00
21°
1019.6 hPa 44.5 mm 11.9°
2
1%
14:00
25°
1018.2 hPa 44.5 mm 11.4°
1
1%
17:00
25°
1016.7 hPa 44.5 mm 10.6°
1
1%
20:00
21°
1016.8 hPa 44.5 mm 14.2°
1
1%
23:00
17°
1017.3 hPa 44.5 mm 13.0°
2
0%
 06:05     20:37    Daglengte: 14:32 Donderdag 12 Aug
02:00
16°
1016.9 hPa 44.5 mm 12.3°
2
0%
05:00
15°
1015.7 hPa 44.5 mm 12.4°
2
0%
08:00
16°
1016.4 hPa 45.3 mm 14.3°
3
1%
11:00
20°
1015.7 hPa 47.5 mm 16.7°
3
1%
14:00
22°
1015.6 hPa 98.1 mm 17.7°
5
1%
20:00
19°
1016.6 hPa 106.2 mm 15.7°
4
1%
 06:06     20:35    Daglengte: 14:29 Vrijdag 13 Aug
02:00
15°
1020.0 hPa 107.2 mm 13.5°
4
0%
08:00
14°
1021.9 hPa 107.4 mm 13.2°
3
1%
14:00
16°
1022.9 hPa 108.1 mm 14.2°
3
1%
20:00
17°
1022.8 hPa 112.1 mm 15.0°
2
1%
 06:08     20:34    Daglengte: 14:26 Zaterdag 14 Aug
02:00
14°
1023.9 hPa 113.0 mm 12.5°
1
0%
08:00
15°
1023.8 hPa 113.0 mm 13.4°
0
0%
14:00
23°
1021.9 hPa 113.3 mm 13.1°
3
0%
20:00
20°
1020.9 hPa 113.5 mm 13.4°
1
1%
 06:09     20:32    Daglengte: 14:23 Zondag 15 Aug
02:00
16°
1020.8 hPa 113.5 mm 11.8°
1
1%
08:00
17°
1019.7 hPa 113.5 mm 12.9°
1
0%
14:00
23°
1013.5 hPa 0.4 mm 13.9°
2
39%
20:00
20°
1013.2 hPa 0.4 mm 13.9°
1
37%
 06:11     20:30    Daglengte: 14:19 Maandag 16 Aug
02:00
16°
1014.7 hPa 0.2 mm 12.7°
1
38%
08:00
16°
1014.9 hPa 0.9 mm 12.8°
1
45%
14:00
23°
1014.3 hPa 0.7 mm 13.6°
3
41%
20:00
20°
1014.4 hPa 1.1 mm 13.7°
2
53%
 06:12     20:28    Daglengte: 14:16 Dinsdag 17 Aug
02:00
16°
1016.5 hPa 0.6 mm 12.4°
1
56%
08:00
16°
1017.4 hPa 0.5 mm 12.5°
1
51%
14:00
23°
1016.9 hPa 0.4 mm 13.5°
2
45%
20:00
19°
1017.5 hPa 0.7 mm 13.5°
2
42%
 06:13     20:26    Daglengte: 14:13 Woensdag 18 Aug
02:00
15°
1018.2 hPa 0.6 mm 12.2°
1
39%
08:00
16°
1018.1 hPa 0.4 mm 12.6°
1
45%
14:00
22°
1016.9 hPa 0.8 mm 14.2°
2
50%
20:00
19°
1016.2 hPa 0.5 mm 14.3°
1
48%
 06:15     20:24    Daglengte: 14:09 Donderdag 19 Aug
02:00
16°
1017.2 hPa 1.9 mm 13.1°
1
58%
08:00
16°
1017.1 hPa   12.7°
1
62%
14:00
22°
1016.0 hPa 0.8 mm 14.0°
2
55%
20:00
19°
1015.7 hPa 0.6 mm 13.8°
1
52%
 06:16     20:22    Daglengte: 14:06 Vrijdag 20 Aug
02:00
16°
1016.4 hPa   12.7°
1
49%
08:00
16°
1016.4 hPa 0.4 mm 13.0°
1
59%
14:00
22°
1015.6 hPa 0.7 mm 13.7°
2
53%
  CAPE Lifted Index Hail Supercell Tornado SRH 3km CL BTM PRES CL TOP PRES Swiss DWD icon SMHI TS
 05:55     20:49    Daglengte: 14:54 Vandaag
15:00 340 J/kg -1.9 K 0 % 0 % 0 % 0 m²/s² 0 0 -0.73 2
16:00 357 J/kg -2.3 K 0 % 0 % 0 % 0 m²/s² 0 0 -1.01 2
17:00 365 J/kg -2.2 K 0 % 0 % 0 % 0 m²/s² 0 0 -0.91 3
18:00 355 J/kg -2.3 K 0 % 0 % 0 % 0 m²/s² 0 0 -0.86 3
19:00 345 J/kg -2.4 K 0 % 0 % 0 % 0 m²/s² 0 0 -1.17 80
20:00 357 J/kg -2.5 K 0 % 0 % 0 % 0 m²/s² 0 0 -1.09 80
21:00 365 J/kg -2.4 K 0 % 0 % 0 % 0 m²/s² 0 0 -0.9 3
22:00 348 J/kg -2.1 K 0 % 0 % 0 % 0 m²/s² 0 0 -0.36 80
23:00 309 J/kg -2.0 K 0 % 0 % 0 % 0 m²/s² 0 0 -0.14 3
 05:56     20:48    Daglengte: 14:52 Morgen
00:00 223 J/kg -1.5 K 0 % 0 % 0 % 0 m²/s² 0 0 0.81 3
01:00 149 J/kg -1.0 K 0 % 0 % 0 % 0 m²/s² 0 0 2.27 80
02:00 97 J/kg -1.1 K 0 % 0 % 0 % 0 m²/s² 0 0 1.9 80
03:00 146 J/kg -1.2 K 0 % 0 % 0 % 0 m²/s² 0 0 0.6 3
04:00 232 J/kg -1.4 K 0 % 0 % 0 % 0 m²/s² 0 0 -0.26 3
05:00 209 J/kg -1.4 K 0 % 0 % 0 % 0 m²/s² 0 0 0.1 3
06:00 154 J/kg -1.1 K 0 % 0 % 0 % 0 m²/s² 0 0 0.52 2
07:00 93 J/kg -0.9 K 0 % 0 % 0 % 0 m²/s² 0 0 0.84 3
08:00 164 J/kg -0.5 K 0 % 0 % 0 % 0 m²/s² 0 0 1.63 3
09:00 343 J/kg -0.8 K 0 % 0 % 0 % 0 m²/s² 0 0 0.04 80
10:00 317 J/kg -1.2 K 0 % 0 % 0 % 0 m²/s² 0 0 0.09 61
11:00 229 J/kg -1.1 K 0 % 0 % 0 % 0 m²/s² 0 0 -0.59 63
12:00 95 J/kg -0.1 K 0 % 0 % 0 % 0 m²/s² 0 0 0.02 61
13:00 302 J/kg -0.8 K 0 % 0 % 0 % 0 m²/s² 0 0 1.69 2
14:00 451 J/kg -1.5 K 0 % 0 % 0 % 0 m²/s² 0 0 0.72 80
15:00 122 J/kg 0.2 K 0 % 0 % 0 % 0 m²/s² 0 0 4.1 2
16:00 50 J/kg 1.3 K 0 % 0 % 0 % 0 m²/s² 0 0 4.81 2
17:00 54 J/kg 1.3 K 0 % 0 % 0 % 0 m²/s² 0 0 5.08 2
18:00 59 J/kg 1.2 K 0 % 0 % 0 % 0 m²/s² 0 0 4.8 1
19:00 81 J/kg 1.1 K 0 % 0 % 0 % 0 m²/s² 0 0 5.09 2
20:00 27 J/kg 1.6 K 0 % 0 % 0 % 0 m²/s² 0 0 6.13 1
21:00 11 J/kg 1.7 K 0 % 0 % 0 % 0 m²/s² 0 0 7.13 1
22:00 2 J/kg 2.1 K 0 % 0 % 0 % 0 m²/s² 0 0 7.41 1
23:00 3 J/kg 2.0 K 0 % 0 % 0 % 0 m²/s² 0 0 7.43 2
 05:58     20:46    Daglengte: 14:48 Zaterdag 07 Aug
00:00 8 J/kg 2.2 K 0 % 0 % 0 % 0 m²/s² 0 0 7.93 3
01:00 6 J/kg 2.5 K 0 % 0 % 0 % 0 m²/s² 0 0 8.08 1
02:00 2 J/kg 3.2 K 0 % 0 % 0 % 0 m²/s² 0 0 8.63 3
03:00 5 J/kg 3.1 K 0 % 0 % 0 % 0 m²/s² 0 0 8.26 2
04:00 0 J/kg 3.0 K 0 % 0 % 0 % 0 m²/s² 0 0 7.77 3
05:00 0 J/kg 2.9 K 0 % 0 % 0 % 0 m²/s² 0 0 7.1 3
06:00 0 J/kg 3.4 K 0 % 0 % 0 % 0 m²/s² 0 0 7.39 3
07:00 0 J/kg 3.9 K 0 % 0 % 0 % 0 m²/s² 0 0 7.41 2
08:00 0 J/kg 4.1 K 0 % 0 % 0 % 0 m²/s² 0 0 6.98 3
09:00 0 J/kg 3.4 K 0 % 0 % 0 % 0 m²/s² 0 0 5.98 3
10:00 11 J/kg 2.5 K 0 % 0 % 0 % 0 m²/s² 0 0 5.14 1
11:00 34 J/kg 1.9 K 0 % 0 % 0 % 0 m²/s² 0 0 4.78 3
12:00 19 J/kg 1.9 K 0 % 0 % 0 % 0 m²/s² 0 0 5.05 3
13:00 57 J/kg 1.2 K 0 % 0 % 0 % 0 m²/s² 0 0 2.97 3
14:00 107 J/kg 0.7 K 0 % 0 % 0 % 0 m²/s² 0 0 1.42 3
15:00 107 J/kg 0.3 K 0 % 0 % 0 % 0 m²/s² 0 0 1.14 61
16:00 115 J/kg 0.3 K 0 % 0 % 0 % 0 m²/s² 0 0 0.6 61
17:00 7 J/kg 2.0 K 0 % 0 % 0 % 0 m²/s² 0 0 2.09 61
18:00 0 J/kg 2.7 K 0 % 0 % 0 % 0 m²/s² 0 0 2.73 61
19:00 1 J/kg 4.4 K 0 % 0 % 0 % 0 m²/s² 0 0 4.49 61
20:00 0 J/kg 2.9 K 0 % 0 % 0 % 0 m²/s² 0 0 2.93 3
21:00 0 J/kg 2.6 K 0 % 0 % 0 % 0 m²/s² 0 0 3.74 61
22:00 0 J/kg 3.2 K 0 % 0 % 0 % 0 m²/s² 0 0 6.29 61
23:00 1 J/kg 2.8 K 0 % 0 % 0 % 0 m²/s² 0 0 7.48 63
 05:59     20:44    Daglengte: 14:45 Zondag 08 Aug
00:00 57 J/kg 1.4 K 0 % 0 % 0 % 0 m²/s² 0 0 5.18 61
01:00 50 J/kg 1.7 K 0 % 0 % 0 % 0 m²/s² 0 0 5.87 61
02:00 26 J/kg 1.4 K 0 % 0 % 0 % 0 m²/s² 0 0 4.25 3
03:00 17 J/kg 0.6 K 0 % 0 % 0 % 0 m²/s² 0 0 2.79 3
04:00 0 J/kg 1.1 K 0 % 0 % 0 % 0 m²/s² 0 0 3.5 3
05:00 0 J/kg 0.4 K 0 % 0 % 0 % 0 m²/s² 0 0 2.77 3
06:00 0 J/kg 0.1 K 0 % 0 % 0 % 0 m²/s² 0 0 3.34 2
07:00 0 J/kg 0.2 K 0 % 0 % 0 % 0 m²/s² 0 0 3.26 2
08:00 1 J/kg 0.7 K 0 % 0 % 0 % 0 m²/s² 0 0 3.52 2
09:00 0 J/kg 0.0 K 0 % 0 % 0 % 0 m²/s² 0 0 13.83 2
Temp Baro Wind Neerslag
  EWN Forecast EWN WRFDA DWD ICON FMI HIRLAM MET Norway GFS
 05:55     20:49    Daglengte: 14:54 Vandaag
17:00 20.7° 1008.1 hPa 2.3 m/s 0.0 mm 21.6° 1006.7 hPa 2.1 m/s 0.6 mm 20.5° 1008.2 hPa 2.3 m/s -1.0 mm 22.0° 1007.5 hPa 3.6 m/s 0.0 mm 22.0° 1008.0 hPa 2.9 m/s
20:00 19.2° 1008.1 hPa 1.7 m/s 0.0 mm 20.9° 1006.3 hPa 1.6 m/s 2.5 mm 18.6° 1008.5 hPa 2.0 m/s 0.6 mm 20.0° 1007.3 hPa 2.0 m/s 0.0 mm 18.6° 1007.6 hPa 1.6 m/s
23:00 16.5° 1008.5 hPa 1.4 m/s 0.5 mm 17.7° 1006.9 hPa 0.9 m/s 3.5 mm 16.5° 1009.5 hPa 2.1 m/s 0.8 mm 16.7° 1007.8 hPa 1.4 m/s 0.0 mm 15.1° 1008.6 hPa 2.4 m/s
 05:56     20:48    Daglengte: 14:52 Morgen
02:00 15.6° 1008.1 hPa 2.0 m/s 2.0 mm 15.7° 1005.8 hPa 2.3 m/s 3.6 mm 15.7° 1008.6 hPa 0.8 m/s 1.6 mm 15.7° 1007.1 hPa 2.2 m/s 0.0 mm 13.7° 1008.8 hPa 1.9 m/s
05:00 15.2° 1007.5 hPa 2.1 m/s 0.7 mm 15.2° 1005.2 hPa 2.2 m/s 3.6 mm 15.2° 1007.9 hPa 1.1 m/s 0.1 mm 15.2° 1006.5 hPa 2.6 m/s 0.0 mm 13.0° 1008.2 hPa 2.1 m/s
08:00 15.4° 1007.8 hPa 2.0 m/s 0.0 mm 16.6° 1005.5 hPa 1.2 m/s 4.2 mm 15.6° 1008.4 hPa 1.7 m/s 0.0 mm 15.3° 1006.4 hPa 2.1 m/s 0.0 mm 14.9° 1008.4 hPa 2.0 m/s
11:00 16.1° 1008.1 hPa 2.9 m/s 3.7 mm 19.2° 1006.0 hPa 5.5 m/s 4.5 mm 15.4° 1008.9 hPa 2.2 m/s 6.1 mm 18.3° 1006.3 hPa 3.5 m/s 0.0 mm 15.2° 1009.3 hPa 2.7 m/s
14:00 18.1° 1007.8 hPa 4.1 m/s 0.9 mm 21.2° 1005.1 hPa 4.9 m/s 5.0 mm 19.2° 1008.4 hPa 3.7 m/s 0.5 mm 17.0° 1007.3 hPa 4.1 m/s 0.0 mm 20.2° 1008.3 hPa 6.0 m/s
17:00 19.7° 1007.7 hPa 4.7 m/s 0.0 mm 22.6° 1005.4 hPa 7.0 m/s 6.4 mm 21.1° 1008.0 hPa 4.4 m/s 0.0 mm 19.2° 1007.4 hPa 4.9 m/s 0.0 mm 21.3° 1008.3 hPa 5.7 m/s
20:00 18.5° 1008.3 hPa 3.6 m/s 0.0 mm 20.8° 1005.6 hPa 5.5 m/s 6.4 mm 19.7° 1008.6 hPa 2.5 m/s 0.0 mm 17.0° 1008.5 hPa 3.8 m/s 0.0 mm 18.0° 1008.9 hPa 2.5 m/s
23:00 16.2° 1009.9 hPa 2.0 m/s 0.0 mm 17.9° 1007.3 hPa 3.9 m/s 6.4 mm 16.4° 1010.1 hPa 1.1 m/s 0.0 mm 16.2° 1010.0 hPa 2.8 m/s 0.0 mm 15.2° 1010.1 hPa 2.6 m/s
 05:58     20:46    Daglengte: 14:48 Zaterdag 07 Aug
02:00 15.1° 1009.7 hPa 1.6 m/s 0.0 mm 16.8° 1006.9 hPa 3.4 m/s 6.4 mm 15.1° 1009.9 hPa 1.0 m/s 0.0 mm 15.4° 1010.3 hPa 2.6 m/s 0.0 mm 13.8° 1010.6 hPa 1.9 m/s
05:00 13.6° 1009.3 hPa 1.8 m/s 0.0 mm 15.2° 1007.1 hPa 2.7 m/s 6.4 mm 13.4° 1009.6 hPa 0.9 m/s 0.0 mm 14.8° 1009.7 hPa 1.9 m/s 0.0 mm 13.0° 1010.1 hPa 1.6 m/s
08:00 14.6° 1009.4 hPa 1.4 m/s 0.0 mm 16.2° 1007.0 hPa 2.3 m/s 6.4 mm 14.7° 1009.6 hPa 0.9 m/s 0.0 mm 14.5° 1009.9 hPa 1.8 m/s 0.0 mm 15.7° 1009.6 hPa 1.5 m/s
11:00 20.9° 1007.7 hPa 2.8 m/s 0.0 mm 21.9° 1006.1 hPa 3.9 m/s 6.4 mm 20.8° 1007.8 hPa 2.2 m/s 0.0 mm 21.5° 1007.4 hPa 3.1 m/s
14:00 22.9° 1006.1 hPa 2.6 m/s 0.0 mm 24.5° 1004.5 hPa 3.2 m/s 6.4 mm 22.3° 1006.5 hPa 2.5 m/s 0.0 mm 25.2° 1004.7 hPa 2.7 m/s
17:00 20.0° 1005.8 hPa 2.5 m/s 3.6 mm 17.4° 1005.8 hPa 8.7 m/s 8.6 mm 19.7° 1006.4 hPa 1.8 m/s 1.0 mm 26.1° 1003.9 hPa 2.8 m/s
20:00 17.0° 1005.4 hPa 2.1 m/s 14.3 mm 15.4° 1004.3 hPa 0.6 m/s 45.1 mm 17.9° 1005.3 hPa 1.7 m/s 1.0 mm 15.9° 1005.5 hPa 9.4 m/s
23:00 15.9° 1006.8 hPa 2.6 m/s 15.9 mm 15.9° 1005.3 hPa 4.3 m/s 58.7 mm 16.1° 1006.7 hPa 2.5 m/s 5.0 mm 15.8° 1008.7 hPa 2.1 m/s
 05:59     20:44    Daglengte: 14:45 Zondag 08 Aug
02:00 15.5° 1008.7 hPa 3.9 m/s 16.3 mm 15.6° 1006.5 hPa 5.3 m/s 59.0 mm 15.7° 1008.8 hPa 2.8 m/s 2.1 mm 14.5° 1010.4 hPa 3.3 m/s
05:00 14.6° 1009.5 hPa 3.0 m/s 6.7 mm 14.4° 1006.6 hPa 4.4 m/s 59.1 mm 15.3° 1009.8 hPa 2.4 m/s 0.0 mm 14.1° 1011.6 hPa 3.6 m/s
08:00 15.2° 1011.5 hPa 2.8 m/s 0.0 mm 15.2° 1008.2 hPa 5.3 m/s 59.1 mm 15.6° 1012.0 hPa 2.5 m/s 0.0 mm 14.8° 1012.3 hPa 3.9 m/s
11:00 18.4° 1013.2 hPa 4.4 m/s 0.0 mm 18.5° 1013.2 hPa 4.3 m/s 0.0 mm 17.7° 1013.1 hPa 5.2 m/s 35.0 mm
14:00 20.5° 1013.6 hPa 4.5 m/s 0.0 mm 20.7° 1013.5 hPa 4.4 m/s 0.0 mm 19.0° 1014.0 hPa 4.9 m/s 36.6 mm
17:00 18.2° 1015.9 hPa 4.7 m/s 38.7 mm 18.2° 1015.9 hPa 4.7 m/s 38.7 mm
20:00 15.5° 1017.5 hPa 2.7 m/s 40.2 mm 15.5° 1017.5 hPa 2.7 m/s 40.2 mm
23:00 13.0° 1020.0 hPa 2.5 m/s 41.2 mm 13.0° 1020.0 hPa 2.5 m/s 41.2 mm
 06:00     20:43    Daglengte: 14:43 Maandag 09 Aug
02:00 12.0° 1020.4 hPa 2.2 m/s 41.2 mm 12.0° 1020.4 hPa 2.2 m/s 41.2 mm
05:00 11.7° 1020.0 hPa 1.6 m/s 41.2 mm 11.7° 1020.0 hPa 1.6 m/s 41.2 mm
08:00 13.4° 1020.4 hPa 2.1 m/s 41.2 mm 13.4° 1020.4 hPa 2.1 m/s 41.2 mm
11:00 18.1° 1020.6 hPa 2.8 m/s 41.2 mm 18.1° 1020.6 hPa 2.8 m/s 41.2 mm
14:00 21.1° 1020.4 hPa 3.6 m/s 41.2 mm 21.1° 1020.4 hPa 3.6 m/s 41.2 mm
17:00 20.5° 1020.6 hPa 4.0 m/s 41.4 mm 20.5° 1020.6 hPa 4.0 m/s 41.4 mm
20:00 17.1° 1021.1 hPa 2.5 m/s 42.0 mm 17.1° 1021.1 hPa 2.5 m/s 42.0 mm
23:00 14.8° 1022.5 hPa 1.5 m/s 42.2 mm 14.8° 1022.5 hPa 1.5 m/s 42.2 mm
 06:02     20:41    Daglengte: 14:39 Dinsdag 10 Aug
02:00 13.4° 1023.0 hPa 1.9 m/s 42.2 mm 13.4° 1023.0 hPa 1.9 m/s 42.2 mm
05:00 12.1° 1022.8 hPa 1.6 m/s 42.2 mm 12.1° 1022.8 hPa 1.6 m/s 42.2 mm
08:00 14.2° 1023.4 hPa 1.5 m/s 42.2 mm 14.2° 1023.4 hPa 1.5 m/s 42.2 mm
11:00 18.7° 1022.8 hPa 2.5 m/s 42.5 mm 18.7° 1022.8 hPa 2.5 m/s 42.5 mm
14:00 20.5° 1021.7 hPa 4.0 m/s 43.9 mm 20.5° 1021.7 hPa 4.0 m/s 43.9 mm
17:00 21.2° 1021.2 hPa 3.8 m/s 44.4 mm 21.2° 1021.2 hPa 3.8 m/s 44.4 mm
20:00 18.7° 1020.7 hPa 1.3 m/s 44.5 mm 18.7° 1020.7 hPa 1.3 m/s 44.5 mm
23:00 15.6° 1021.7 hPa 0.5 m/s 44.5 mm 15.6° 1021.7 hPa 0.5 m/s 44.5 mm
 06:03     20:39    Daglengte: 14:36 Woensdag 11 Aug
02:00 13.9° 1021.4 hPa 1.4 m/s 44.5 mm 13.9° 1021.4 hPa 1.4 m/s 44.5 mm
05:00 13.1° 1021.0 hPa 1.3 m/s 44.5 mm 13.1° 1021.0 hPa 1.3 m/s 44.5 mm
08:00 15.6° 1020.6 hPa 1.4 m/s 44.5 mm 15.6° 1020.6 hPa 1.4 m/s 44.5 mm
11:00 21.0° 1019.6 hPa 1.7 m/s 44.5 mm 21.0° 1019.6 hPa 1.7 m/s 44.5 mm
14:00 24.8° 1018.2 hPa 1.1 m/s 44.5 mm 24.8° 1018.2 hPa 1.1 m/s 44.5 mm
17:00 25.2° 1016.7 hPa 0.9 m/s 44.5 mm 25.2° 1016.7 hPa 0.9 m/s 44.5 mm
20:00 20.7° 1016.8 hPa 0.8 m/s 44.5 mm 20.7° 1016.8 hPa 0.9 m/s 44.5 mm
23:00 17.2° 1017.3 hPa 1.7 m/s 44.5 mm 17.2° 1017.3 hPa 1.7 m/s 44.5 mm
 06:05     20:37    Daglengte: 14:32 Donderdag 12 Aug
02:00 15.9° 1016.9 hPa 1.9 m/s 44.5 mm 15.9° 1016.9 hPa 1.9 m/s 44.5 mm
05:00 15.0° 1015.7 hPa 2.1 m/s 44.5 mm 15.0° 1015.7 hPa 2.1 m/s 44.5 mm
08:00 16.2° 1016.4 hPa 2.8 m/s 45.3 mm 16.2° 1016.4 hPa 2.8 m/s 45.3 mm
11:00 19.8° 1015.7 hPa 2.7 m/s 47.5 mm 19.8° 1015.7 hPa 2.7 m/s 47.5 mm
14:00 22.2° 1015.6 hPa 4.9 m/s 50.6 mm 22.2° 1015.6 hPa 4.9 m/s 50.6 mm
20:00 19.4° 1016.6 hPa 4.2 m/s 53.6 mm 19.4° 1016.6 hPa 4.2 m/s 53.6 mm
 06:06     20:35    Daglengte: 14:29 Vrijdag 13 Aug
02:00 14.7° 1020.0 hPa 3.6 m/s 53.6 mm 14.7° 1020.0 hPa 3.6 m/s 53.6 mm
08:00 14.5° 1021.9 hPa 3.2 m/s 53.7 mm 14.5° 1021.9 hPa 3.2 m/s 53.7 mm
14:00 15.8° 1022.9 hPa 3.2 m/s 54.2 mm 15.8° 1022.9 hPa 3.2 m/s 54.2 mm
20:00 16.8° 1022.8 hPa 2.3 m/s 56.4 mm 16.8° 1022.8 hPa 2.3 m/s 56.4 mm
 06:08     20:34    Daglengte: 14:26 Zaterdag 14 Aug
02:00 13.7° 1023.9 hPa 0.8 m/s 56.5 mm 13.7° 1023.9 hPa 0.8 m/s 56.5 mm
08:00 15.1° 1023.8 hPa 0.4 m/s 56.5 mm 15.1° 1023.8 hPa 0.4 m/s 56.5 mm
14:00 22.8° 1021.9 hPa 2.6 m/s 56.7 mm 22.8° 1021.9 hPa 2.6 m/s 56.7 mm
20:00 19.9° 1020.9 hPa 1.4 m/s 56.8 mm 19.9° 1020.9 hPa 1.5 m/s 56.8 mm
 06:09     20:32    Daglengte: 14:23 Zondag 15 Aug
02:00 15.8° 1020.8 hPa 1.0 m/s 56.8 mm 15.8° 1020.8 hPa 1.0 m/s 56.8 mm
08:00 17.1° 1019.7 hPa 1.1 m/s 56.8 mm 17.1° 1019.7 hPa 1.1 m/s 56.8 mm
14:00 23.4° 1013.5 hPa 2.3 m/s 0.4 mm
20:00 20.1° 1013.2 hPa 1.1 m/s 0.4 mm
 06:11     20:30    Daglengte: 14:19 Maandag 16 Aug
02:00 16.1° 1014.7 hPa 1.2 m/s 0.2 mm
08:00 16.5° 1014.9 hPa 1.3 m/s 0.9 mm
14:00 23.3° 1014.3 hPa 2.7 m/s 0.7 mm
20:00 19.9° 1014.4 hPa 2.3 m/s 1.1 mm
 06:12     20:28    Daglengte: 14:16 Dinsdag 17 Aug
02:00 15.8° 1016.5 hPa 1.4 m/s 0.6 mm
08:00 15.9° 1017.4 hPa 1.4 m/s 0.5 mm
14:00 23.2° 1016.9 hPa 2.2 m/s 0.4 mm
20:00 18.8° 1017.5 hPa 1.6 m/s 0.7 mm
 06:13     20:26    Daglengte: 14:13 Woensdag 18 Aug
02:00 15.3° 1018.2 hPa 1.0 m/s 0.6 mm
08:00 15.7° 1018.1 hPa 1.3 m/s 0.4 mm
14:00 22.0° 1016.9 hPa 2.4 m/s 0.8 mm
20:00 19.2° 1016.2 hPa 1.5 m/s 0.5 mm
 06:15     20:24    Daglengte: 14:09 Donderdag 19 Aug
02:00 15.7° 1017.2 hPa 1.3 m/s 1.9 mm
08:00 15.6° 1017.1 hPa 1.4 m/s 0.0 mm
14:00 21.8° 1016.0 hPa 1.9 m/s 0.8 mm
20:00 18.9° 1015.7 hPa 1.1 m/s 0.6 mm
 06:16     20:22    Daglengte: 14:06 Vrijdag 20 Aug
02:00 15.5° 1016.4 hPa 1.0 m/s 0.0 mm
08:00 15.7° 1016.4 hPa 1.2 m/s 0.4 mm
14:00 21.7° 1015.6 hPa 2.1 m/s 0.7 mm
FMI Hirlam - 7.5 km EWN WRFDA - 12 km DWD ICON - 7 km GFS - 25 km Basiskaart






























































Updatetijd (Europe/Brussels) Resolutie Lengte Stap
FMI Hirlam 14:00, 20:00, 02:00, 08:00 7.5 km 49h 1h
EWN WRFDA 04:15, 10:15, 16:15, 22:15 12 km 73h 1h
DWD ICON 11:45, 17:45, 23:45, 05:45 7 km 75h 1h
GFS 14:15, 20:15, 02:15, 08:15 25 km 237h 3h
30+ mm
25-30 mm
20-25 mm
15-20 mm
10-15 mm
6-10 mm
4-6 mm
2-4 mm
1-2 mm
0.5-1 mm
0.2-0.5 mm
0.1-0.2 mm
30+ mm
25-30 mm
20-25 mm
15-20 mm
10-15 mm
6-10 mm
4-6 mm
2-4 mm
1-2 mm
0.5-1 mm
0.2-0.5 mm
0.1-0.2 mm
Sneeuwval
Natte sneeuw
Hagel
Vorst
30+ mm
25-30 mm
20-25 mm
15-20 mm
10-15 mm
6-10 mm
4-6 mm
2-4 mm
1-2 mm
0.5-1 mm
0.2-0.5 mm
0.1-0.2 mm
Sneeuwval
Natte sneeuw
Hagel
Vorst
Onweer
50 mm
40 mm
30 mm
26 mm
22 mm
18 mm
14 mm
10 mm
9 mm
8 mm
7 mm
6 mm
5 mm
4.5 mm
4 mm
3.5 mm
3 mm
2.5 mm
2 mm
1.5 mm
1 mm
0.8 mm
0.6 mm
0.4 mm
0.2 mm
0.05 mm
35°
30°
25°
20°
15°
10°
-5°
-10°
-15°
-20°
-25°
-30°
-35°
33> m/s
29 m/s
25 m/s
21 m/s
17 m/s
14 m/s
11 m/s
8 m/s
5 m/s
3 m/s
0 m/s
2600 J/kg
2400 J/kg
2200 J/kg
2000 J/kg
1800 J/kg
1600 J/kg
1400 J/kg
1200 J/kg
1000 J/kg
800 J/kg
600 J/kg
400 J/kg
200 J/kg
70 dBZ
65 dBZ
60 dBZ
55 dBZ
50 dBZ
45 dBZ
40 dBZ
35 dBZ
30 dBZ
25 dBZ
20 dBZ
15 dBZ
10 dBZ
5 dBZ
-1 K
-2 K
-3 K
-4 K
-5 K
-6 K
-7 K
-8 K
-9 K
950 m²/s²
900 m²/s²
850 m²/s²
800 m²/s²
750 m²/s²
700 m²/s²
650 m²/s²
600 m²/s²
550 m²/s²
500 m²/s²
450 m²/s²
400 m²/s²
350 m²/s²
300 m²/s²
250 m²/s²
200 m²/s²
150 m²/s²
100 m²/s²
46 m/s
44 m/s
42 m/s
40 m/s
38 m/s
36 m/s
34 m/s
32 m/s
30 m/s
28 m/s
26 m/s
24 m/s
22 m/s
20 m/s
16 m/s
12 m/s
8 m/s
4 m/s
30 m/s
28 m/s
26 m/s
24 m/s
22 m/s
20 m/s
18 m/s
16 m/s
14 m/s
12 m/s
10 m/s
8 m/s
6 m/s
4 m/s
2 m/s
3.0
2.8
2.6
2.4
2.2
2.0
1.8
1.6
1.4
1.2
1.0
0.8
0.6
0.4
0.2
15
14
13
12
11
10
9
8
7
6
5
4
3
2
1
90%
80%
70%
60%
50%
40%
30%
20%
10%
42
40
38
36
34
32
30
28
26
24
22
20
18
16
14
12
90+ cm
80-90 cm
70-80 cm
60-70 cm
50-60 cm
40-50 cm
30-40 cm
20-30 cm
10-20 cm
1-10 cm
Sneeuwval
Natte sneeuw
Regen
>120 mm
115 mm
110 mm
105 mm
100 mm
95 mm
90 mm
85 mm
80 mm
75 mm
70 mm
65 mm
60 mm
55 mm
50 mm
45 mm
45 mm
40 mm
35 mm
30 mm
25 mm
20 mm
15 mm
10 mm
5 mm
0.1 mm
960 hPa
880 hPa
800 hPa
720 hPa
640 hPa
560 hPa
584 gpdm
568 gpdm
552 gpdm
536 gpdm
520 gpdm
504 gpdm
488 gpdm
Extreem zwaar Noodweer Kans op onweer
15% 15% 5% 50% 15%

Dag




Kaart






35°
30°
25°
20°
15°
10°
-5°
-10°
-15°
-20°
-25°
-30°
-35°
33> m/s
29 m/s
25 m/s
21 m/s
17 m/s
14 m/s
11 m/s
8 m/s
5 m/s
3 m/s
0 m/s
Extreem zwaar Noodweer Kans op onweer
15% 15% 5% 50% 15%
>120 mm